Flag for U.S.A. Weather past 2 weeks in Port Angeles, Washington, U.S.A.

Now
51 °F

Fog.


Feels Like: 50 °F
Forecast: 52 / 65 °F
Wind: 5 mph from West

Location: William R. Fairchild International Airport

Current Time: May 27, 2015 at 3:57:12 AM

Latest Report: May 27, 2015 at 2:53 AM


Visibility: 1 mi

Pressure: 30.05 "Hg

Humidity: 96%

Dew point: 50 °F

Location of Port AngelesLocation

Historic Weather in Port Angeles — Graph

°F

Port Angeles temperature yesterday

Maximum temperature yesterday: 63 °F (at 1:53 PM)
Minimum temperature yesterday: 51 °F (at 9:53 PM)
Average temperature yesterday: 56 °F

Past Weeks' High & Low Weather Summary

 TemperatureHumidityPressure
High67 °F (May 18, 1:53 PM)100% (May 21, 12:55 AM)30.19 "Hg (May 21, 12:55 AM)
Low48 °F (May 12, 2:53 AM)61% (May 18, 1:53 PM)29.82 "Hg (May 12, 11:53 AM)
Average54 °F83%29.99 "Hg
* Reported May 12 2:53 AM — May 27 2:53 AM, Port Angeles, Weather by CustomWeather, © 2015

Note: Actual official high and low records may vary slightly from our data, if they occured in-between our weather recording intervals... More about our weather records

Advertising

Port Angeles weather history for previous 24 hours

 ConditionsComfort  
Time TempWeatherWind HumidityBarometerVisibility
2:53 AM
Wed, May 27
51 °FFog.5 mph96%30.05 "Hg1 mi
1:53 AM51 °FFog.6 mph92%30.05 "Hg1 mi
1:01 AM51 °FFog.7 mph92%30.05 "Hg1 mi
11:51 PM
Tue, May 26
51 °FFog.7 mph92%30.05 "Hg2 mi
10:53 PM51 °FFog.6 mph92%30.05 "Hg5 mi
9:53 PM51 °FPassing clouds.No wind89%30.04 "Hg10 mi
8:53 PM52 °FSunny.5 mph89%30.03 "Hg10 mi
7:53 PM56 °FSunny.7 mph81%30.03 "Hg10 mi
6:53 PM58 °FSunny.8 mph75%30.02 "Hg10 mi
5:53 PM60 °FSunny.6 mph72%30.03 "Hg10 mi
4:53 PM58 °FOvercast.12 mph75%30.04 "Hg10 mi
3:53 PM63 °FScattered clouds.8 mph68%30.05 "Hg10 mi
2:53 PM62 °FSunny.6 mph67%30.06 "Hg10 mi
1:53 PM63 °FSunny.6 mph68%30.06 "Hg10 mi
12:53 PM60 °FPartly sunny.6 mph75%30.06 "Hg10 mi
11:53 AM59 °FOvercast.6 mph78%30.06 "Hg10 mi
10:53 AM57 °FOvercast.6 mph81%30.07 "Hg10 mi
9:53 AM56 °FOvercast.8 mph81%30.06 "Hg10 mi
9:00 AM56 °FMore clouds than sun.6 mph81%30.06 "Hg10 mi
7:53 AM54 °FOvercast.No wind86%30.06 "Hg10 mi
6:53 AM54 °FOvercast.3 mph86%30.05 "Hg10 mi
5:53 AM53 °FMostly cloudy.5 mph86%30.04 "Hg10 mi
4:53 AM53 °FOvercast.3 mph86%30.04 "Hg10 mi
3:53 AM53 °FOvercast.5 mph89%30.03 "Hg10 mi
Weather by CustomWeather, © 2015

See weather overviewHow to use our weather pages